Home > Time Zones > World Clock > Weather > U.S.A. > Gary > Past weeks

Flag for U.S.A. Weather past 2 weeks in Gary, Indiana, U.S.A.

Now
54 °F

Clear.


Feels Like: 54 °F
Forecast: 55 / 67 °F
Wind: 3 mph from Northeast

Location: Porter County Municipal Airport

Current Time: Jul 2, 2015 at 5:27:58 AM

Latest Report: Jul 2, 2015 at 4:56 AM


Visibility: 10 mi

Pressure: 29.95 "Hg

Humidity: 93%

Dew point: 52 °F

Location of GaryLocation

Historic Weather in Gary — Graph

°F

Gary temperature yesterday

Maximum temperature yesterday: 68 °F (at 11:56 AM)
Minimum temperature yesterday: 56 °F (at 9:56 PM)
Average temperature yesterday: 61 °F

Past Weeks' High & Low Weather Summary

 TemperatureHumidityPressure
High84 °F (Jun 21, 2:56 PM)100% (Jun 18, 6:56 AM)30.17 "Hg (Jun 18, 6:56 AM)
Low53 °F (Jun 28, 5:56 AM)40% (Jun 23, 3:56 PM)29.72 "Hg (Jun 22, 10:56 PM)
Average69 °F79%29.94 "Hg
* Reported Jun 17 5:56 AM — Jul 2 3:56 AM, Gary, Weather by CustomWeather, © 2015

Note: Actual official high and low records may vary slightly from our data, if they occured in-between our weather recording intervals... More about our weather records

Advertising

Gary weather history for previous 24 hours

 ConditionsComfort  
Time TempWeatherWind HumidityBarometerVisibility
3:56 AM
Thu, Jul 2
55 °FClear.5 mph93%29.96 "Hg10 mi
2:56 AM57 °FClear.3 mph93%29.97 "Hg10 mi
1:56 AM57 °FClear.5 mph90%29.97 "Hg10 mi
12:56 AM58 °FOvercast.3 mph87%29.98 "Hg10 mi
11:56 PM
Wed, Jul 1
58 °FOvercast.5 mph84%29.98 "Hg10 mi
10:56 PM57 °FOvercast.3 mph90%29.99 "Hg10 mi
9:56 PM56 °FPassing clouds.No wind87%29.99 "Hg10 mi
8:56 PM57 °FClear.3 mph83%29.98 "Hg10 mi
7:56 PM58 °FSunny.7 mph78%29.98 "Hg10 mi
6:56 PM61 °FSunny.6 mph70%29.97 "Hg10 mi
5:56 PM63 °FSunny.8 mph63%29.97 "Hg10 mi
4:56 PM65 °FSunny.7 mph59%29.95 "Hg10 mi
3:56 PM66 °FSunny.8 mph63%29.96 "Hg10 mi
2:56 PM67 °FSunny.10 mph61%29.96 "Hg10 mi
1:56 PM68 °FOvercast.8 mph63%29.96 "Hg10 mi
12:56 PM67 °FPartly sunny.9 mph66%29.97 "Hg10 mi
11:56 AM68 °FScattered clouds.7 mph63%29.97 "Hg10 mi
10:56 AM66 °FPassing clouds.9 mph68%29.96 "Hg10 mi
9:56 AM64 °FOvercast.6 mph70%29.97 "Hg10 mi
8:56 AM62 °FCloudy.7 mph75%29.96 "Hg10 mi
7:56 AM59 °FPartly sunny.6 mph84%29.96 "Hg10 mi
6:56 AM58 °FOvercast.7 mph87%29.95 "Hg10 mi
5:56 AM57 °FPartly sunny.3 mph90%29.93 "Hg10 mi
Weather by CustomWeather, © 2015

See weather overviewHow to use our weather pages